Location: Windsor
(43.2292°N, 89.3015°W)
Time: 22:22:23
(UTC+00:00)

SPROUT - Visible Passes

Search period start: 28 June 2022 00:00
Search period end: 08 July 2022 00:00
Orbit: 588 x 601 km, 97.9° (Epoch: 28 June)

Date Brightness Start Highest point End Pass type
(mag) Time Alt. Az. Time Alt. Az. Time Alt. Az.
28 Jun ? 06:17:38 39° E 06:18:16 43° ENE 06:22:12 10° N visible
28 Jun ? 07:54:16 17° W 07:54:16 17° W 07:56:46 10° NW visible
29 Jun ? 06:27:13 51° E 06:27:41 54° ENE 06:31:46 10° N visible
29 Jun ? 08:03:51 13° W 08:03:51 13° W 08:05:37 10° WNW visible
30 Jun ? 06:36:47 66° ESE 06:37:07 70° ENE 06:41:17 10° N visible
30 Jun ? 08:13:26 10° W 08:13:26 10° W 08:13:38 10° W visible
01 Jul ? 06:46:22 81° SSE 06:46:34 89° ENE 06:50:45 10° NNW visible
02 Jul ? 05:19:38 10° E 05:21:00 11° ENE 05:22:22 10° NE visible
02 Jul ? 06:55:56 72° WSW 06:56:00 72° W 07:00:10 10° NNW visible
03 Jul ? 05:28:51 12° E 05:30:19 14° ENE 05:32:31 10° NNE visible
03 Jul ? 07:05:29 56° W 07:05:29 56° W 07:09:33 10° NNW visible
04 Jul ? 05:38:24 15° E 05:39:38 17° ENE 05:42:23 10° NNE visible
04 Jul ? 07:15:02 43° W 07:15:02 43° W 07:18:53 10° NNW visible
05 Jul ? 05:47:56 19° E 05:48:57 21° ENE 05:52:07 10° NNE visible
05 Jul ? 07:24:34 34° W 07:24:34 34° W 07:28:10 10° NNW visible
06 Jul ? 05:57:28 24° E 05:58:17 26° ENE 06:01:46 10° N visible
06 Jul ? 07:34:06 27° W 07:34:06 27° W 07:37:22 10° NW visible
07 Jul ? 06:07:00 31° E 06:07:37 32° ENE 06:11:21 10° N visible
07 Jul ? 07:43:38 21° W 07:43:38 21° W 07:46:30 10° NW visible
